RS-44 & BREEZE-KM R/B

Last updated on Wed Sep 17 2025 00:03:09 GMT+0000 (Coordinated Universal Time)

1 44909U 19096E 25259.45302638 .00000007 00000+0 -23854-4 0 9998 2 44909 82.5251 161.6063 0218516 64.4755 297.8766 12.79743466267333
UTC large
Height (km)
Speed (km/s)
/
Latitude / Longitude
Inclination (degrees)
Orbital Period (minutes)
Azimuth
Elevation
Range (km)
Doppler Factor

Next 0 passes for location: London (51.5072 / 0.1276)

Sorry there are no passes over London.